Showing default

ICO G-1, 32763

Orbit data source: Space-Track

ICO G-1, 32763 is a payload satellite owned by ICO North America (US) in GEO that was launched on Mon, 14 Apr 2008 UTC via an ATLAS V 421 launch vehicle from the Air Force Eastern Test Range (AFETR). Payload-class satellites include a variety of spacecraft equipped with specific instruments for various scientific and technological missions. These include communications satellites like Starlink; space stations such as the ISS; scientific satellites like the Hubble; Earth observation satellites from companies like Planet Labs, Umbra, and HawkEye 360; GPS; miniature CubeSats for education and research; and military/defense satellites.

Loading next visibility...
Identifier
32763, 2008-016A
Orbit
GEO
Country
Flag of USUS
Related business
Manufacturer
SS/Loral
Mission
Operational Commercial Communications
Bus & Motor
SSL-1300, R-4D-15-300
Mass
6,600 kg wet, ~3,000 kg dry
Launch date (UTC)
2008-04-14 (18 years ago)
Launch vehicle
ATLAS V 421
Launch site
Air Force Eastern Test Range (AFETR)
Object type
Payload
Rocket body
Debris
Shape & HBR
Box + 2 Pan, 15.0 m
Radar Cross Section
50.806 m², Large (>1 m²)

Expand to show TLE details & history
Last TLE update: 7 hours ago

TLE from 7 hours ago
0 ICO G-1
1 32763U 08016A   25311.26196600 -.00000167  00000-0  00000-0 0  9993
2 32763   5.4995  36.6532 0002404 175.7541 195.7870  1.00273134 64323
Epoch: 2025-11-07T06:17Z
TLE epoch observation values (Epoch: 2025-11-07T06:17:13.862Z)
Latitude
1.11424°
Longitude
-92.90911°
Altitude
35,795.388 km
Speed
3.074 km/s
True Right ascension
03h 12m 25s
True Declination
1° 06' 47"
Sunlit
Object was in daylight at epoch
Visualization orbit readout
Latitude
Unknown
Longitude
Unknown
Altitude
Unknown
Speed
Unknown
Apparent Right ascension
Unknown
Apparent Declination
Unknown
Sunlit
N/A
Visualization observer readout
Local Sidereal Time
09:28:35
Azimuth
Unknown
Elevation
Unknown
Doppler factor
Unknown
Orbital elements
Apogee altitude
35,797.409 km
Perigee altitude
35,777.136 km
Semi-major axis
42,165.41 km
Eccentricity
0.00024
Inclination
5.4995°
RAAN
36.6532°
Arg. of periapsis
175.7541°
True anomaly
195.77951°
Mean anomaly
195.787°
Eccentric anomaly
195.78325°
Mean motion
0.25067 °/min
Orbital period
1,436.13 mins
BSTAR
0
Loading maneuver chart data...
Computing Atmospheric mass density...
Loading historical data...
Loading historical data...
Loading historical data...
Loading historical data...
Loading historical data...
Loading historical data...
Loading historical data...
Other satellites on launch #16 in the year 2008 (2008-04-14 UTC)

Documentation

Showing up to 5 results
|